GW0118 Weather Reports


time (UTC)temp
C
wind
direction
speed
KPH
gust
KPH
rain 1hr
cm
rain 24hr
cm
rain mn
cm
humidity
%
barometer
mb
20260508031606 4 0 0.0 1.6 0.00 0.18 0.00 91 1011.7
20260508030104 4 0 0.0 1.6 0.00 0.18 0.00 92 1011.8
20260508024609 4 49 0.0 1.6 0.00 0.18 0.00 92 1012.0
20260508023059 4 0 0.0 0.0 0.00 0.18 0.00 92 1012.3
20260508021602 4 0 0.0 1.6 0.00 0.18 0.00 92 1012.4
20260508014601 5 0 0.0 1.6 0.00 0.18 0.00 92 1012.5
20260508013110 5 0 0.0 4.8 0.00 0.18 0.00 92 1012.8
20260508011600 5 0 0.0 1.6 0.00 0.18 0.00 91 1012.9
20260508010100 5 132 0.0 1.6 0.00 0.18 0.00 91 1013.1
20260508004604 5 129 0.0 0.0 0.00 0.18 0.00 91 1013.2
20260508003104 5 0 0.0 1.6 0.00 0.18 0.00 91 1013.3
20260508001600 6 0 0.0 0.0 0.00 0.18 0.00 90 1013.5
20260507234604 6 0 0.0 3.2 0.00 0.18 0.00 90 1013.7
20260507233117 6 0 0.0 3.2 0.00 0.18 0.00 89 1013.8
20260507231608 6 0 0.0 0.0 0.00 0.18 0.00 89 1013.9
20260507230100 6 222 0.0 4.8 0.00 0.18 0.00 89 1014.0
20260507224559 6 0 0.0 3.2 0.00 0.18 0.00 89 1014.0
20260507221600 7 0 0.0 1.6 0.00 0.18 0.00 88 1013.7
20260507220059 7 0 0.0 1.6 0.00 0.18 0.00 87 1013.8
20260507214603 7 120 0.0 1.6 0.00 0.18 0.18 87 1013.7
20260507213101 7 0 0.0 0.0 0.00 0.18 0.18 87 1013.5
20260507211604 7 184 0.0 1.6 0.00 0.18 0.18 86 1013.5
20260507210114 7 129 1.6 8.0 0.00 0.18 0.18 84 1013.5
20260507204600 8 0 1.6 9.7 0.00 0.18 0.18 84 1013.4
20260507203057 8 119 1.6 9.7 0.00 0.18 0.18 83 1013.1
20260507201600 8 116 3.2 8.0 0.00 0.18 0.18 84 1013.0
20260507200105 8 76 1.6 4.8 0.00 0.18 0.18 82 1012.7
20260507194601 9 63 0.0 11.3 0.00 0.18 0.18 80 1012.5
20260507193059 10 67 4.8 8.0 0.00 0.18 0.18 75 1012.4
20260507191603 10 110 0.0 3.2 0.00 0.18 0.18 73 1012.3
20260507190113 12 43 0.0 1.6 0.00 0.18 0.18 68 1012.2
20260507184558 12 270 0.0 4.8 0.00 0.18 0.18 67 1012.2
20260507183115 12 265 4.8 9.7 0.00 0.18 0.18 67 1012.3
20260507181606 12 267 3.2 6.4 0.00 0.18 0.18 66 1012.1
20260507180104 12 258 4.8 11.3 0.00 0.18 0.18 67 1012.1
20260507174605 12 229 3.2 8.0 0.00 0.18 0.18 68 1012.0
20260507173120 13 301 1.6 6.4 0.00 0.18 0.18 67 1012.1
20260507171600 12 278 1.6 8.0 0.00 0.18 0.18 70 1012.0
20260507170059 12 253 6.4 11.3 0.00 0.18 0.18 68 1012.1
20260507164631 12 248 6.4 14.5 0.00 0.18 0.18 70 1012.1
20260507163101 12 219 4.8 9.7 0.00 0.18 0.18 73 1012.1
20260507161605 12 260 1.6 6.4 0.00 0.18 0.18 69 1012.0
20260507154601 11 245 0.0 6.4 0.00 0.18 0.18 76 1011.7
20260507153059 10 255 1.6 9.7 0.08 0.18 0.18 80 1011.7
20260507151600 9 262 3.2 8.0 0.10 0.18 0.18 81 1011.8
20260507150059 8 243 1.6 6.4 0.10 0.18 0.18 86 1012.1
20260507144602 8 232 8.0 22.5 0.13 0.18 0.18 87 1012.4
20260507143119 8 248 12.9 35.4 0.05 0.08 0.08 84 1012.5
20260507141604 10 216 9.7 16.1 0.00 0.05 0.05 82 1012.4
20260507134559 10 266 4.8 11.3 0.00 0.03 0.03 81 1012.5
20260507133100 10 266 6.4 17.7 0.00 0.03 0.03 82 1012.3
20260507131606 10 247 11.3 19.3 0.03 0.03 0.03 81 1012.5
20260507130059 10 321 4.8 12.9 0.03 0.03 0.03 82 1012.4
20260507124606 10 237 6.4 17.7 0.03 0.03 0.03 82 1012.4
20260507123100 9 260 6.4 22.5 0.03 0.03 0.03 81 1012.3
20260507121558 10 291 17.7 30.6 0.00 0.00 0.00 77 1012.4
20260507120100 12 238 6.4 17.7 0.00 0.00 0.00 73 1012.2
20260507114611 13 237 4.8 14.5 0.00 0.00 0.00 66 1012.0
20260507113129 14 101 4.8 20.9 0.00 0.00 0.00 60 1012.1
20260507111600 14 198 4.8 16.1 0.00 0.00 0.00 62 1012.4
20260507110059 12 0 3.2 9.7 0.00 0.00 0.00 67 1012.6
20260507104558 12 268 3.2 4.8 0.00 0.00 0.00 68 1012.5
20260507103059 12 314 3.2 12.9 0.00 0.00 0.00 70 1012.8
20260507101603 11 63 3.2 12.9 0.00 0.00 0.00 70 1012.8
20260507100115 11 23 4.8 12.9 0.00 0.00 0.00 74 1012.9
20260507094607 10 54 3.2 8.0 0.00 0.00 0.00 75 1013.0
20260507093057 10 19 1.6 9.7 0.00 0.00 0.00 77 1013.0
20260507091635 10 77 4.8 9.7 0.00 0.00 0.00 77 1013.1
20260507090058 10 103 3.2 6.4 0.00 0.00 0.00 78 1012.8
20260507084610 10 63 3.2 6.4 0.00 0.00 0.00 82 1012.8
20260507083100 9 111 1.6 6.4 0.00 0.00 0.00 82 1012.7
20260507081602 9 86 3.2 6.4 0.00 0.00 0.00 80 1012.7
20260507080100 10 60 1.6 3.2 0.00 0.00 0.00 77 1012.7
20260507074604 9 0 0.0 6.4 0.00 0.00 0.00 78 1012.6
20260507073103 9 52 4.8 11.3 0.00 0.00 0.00 78 1012.4
20260507071559 9 13 1.6 14.5 0.00 0.00 0.00 80 1012.3
20260507070106 8 54 6.4 12.9 0.00 0.00 0.00 82 1012.3
20260507064559 7 61 6.4 11.3 0.00 0.00 0.00 86 1012.3
20260507063059 6 79 3.2 6.4 0.00 0.00 0.00 88 1012.1
20260507061600 6 75 3.2 6.4 0.00 0.00 0.00 89 1012.1
20260507060103 6 82 0.0 6.4 0.00 0.00 0.00 89 1012.1
20260507054559 6 65 3.2 8.0 0.00 0.00 0.00 89 1012.1
20260507053058 6 113 1.6 4.8 0.00 0.00 0.00 89 1012.1
20260507051602 6 0 0.0 3.2 0.00 0.00 0.00 89 1012.0
20260507050059 5 69 0.0 3.2 0.00 0.00 0.00 89 1012.1
20260507044616 5 0 0.0 1.6 0.00 0.00 0.00 89 1012.1
20260507041609 5 0 0.0 1.6 0.00 0.00 0.00 88 1012.4
20260507040059 5 0 0.0 1.6 0.00 0.00 0.00 89 1012.4
20260507034558 5 108 0.0 1.6 0.00 0.00 0.00 89 1012.4